Orbital Elements at Epoch 2459200.5 (2020-Dec-17.0) TDB
Reference: JPL 22 (heliocentric ecliptic J2000)
Element | Value | Uncertainty (1-sigma) | Units |
e | .07184468109376665 | 3.8579e-08 | |
a | 2.390460362746446 | 9.7178e-09 | au |
q | 2.218718500317638 | 9.6963e-08 | au |
i | 6.585144808474657 | 3.7862e-06 | deg |
node | 59.56718510073818 | 3.7136e-05 | deg |
peri | 11.24295489026412 | 5.222e-05 | deg |
M | 313.0681340084413 | 3.8518e-05 | deg |
tp | 2459376.489220756157 (2021-Jun-10.98922076) | 0.00014494 | TDB |
period | 1349.959523953552 3.70 | 8.2318e-06 2.254e-08 | d yr |
n | .2666746621748243 | 1.6261e-09 | deg/d |
Q | 2.562202225175255 | 1.0416e-08 | au |
|
| | Orbit Determination Parameters
Additional Information
|